10min,FGNet,Santaquin,42.01,20OCT2017:00:00:00,61.2,36.2,39,25,55.3,0,8.8,174,10.8,0,0.00,0.00,0.00,59.0,60.2
10min,FGNet,Santaquin,42.01,20OCT2017:00:10:00,60.2,36.9,42,25,55.3,0,8.8,177,13.0,0,0.00,0.00,0.00,57.3,58.5
10min,FGNet,Santaquin,42.01,20OCT2017:00:20:00,57.9,37.3,46,25,55.3,0,8.0,180,11.2,0,0.00,0.00,0.00,54.8,56.0
10min,FGNet,Santaquin,42.01,20OCT2017:00:30:00,56.0,37.5,50,26,55.3,0,8.0,180,10.5,0,0.00,0.00,0.00,53.0,54.2
10min,FGNet,Santaquin,42.01,20OCT2017:00:40:00,56.4,37.5,49,25,55.3,0,7.5,178,9.6,0,0.00,0.00,0.00,54.9,55.8
10min,FGNet,Santaquin,42.01,20OCT2017:00:50:00,56.1,38.0,51,25,55.3,0,7.7,187,10.3,0,0.00,0.00,0.00,52.4,54.0
10min,FGNet,Santaquin,42.01,20OCT2017:01:00:00,55.1,38.1,53,26,55.3,0,7.4,181,10.1,0,0.00,0.00,0.00,52.1,53.5
10min,FGNet,Santaquin,42.01,20OCT2017:01:10:00,55.4,37.3,51,26,55.2,0,7.8,176,10.3,0,0.00,0.00,0.00,53.2,54.4
10min,FGNet,Santaquin,42.01,20OCT2017:01:20:00,55.5,38.0,52,26,55.3,0,6.5,202,8.7,0,0.00,0.00,0.00,53.0,54.5
10min,FGNet,Santaquin,42.01,20OCT2017:01:30:00,55.2,37.8,52,25,55.2,0,6.7,202,9.1,0,0.00,0.00,0.00,51.9,53.7
10min,FGNet,Santaquin,42.01,20OCT2017:01:40:00,55.6,37.4,50,26,55.2,0,6.5,200,9.2,0,0.00,0.00,0.00,52.7,54.4
10min,FGNet,Santaquin,42.01,20OCT2017:01:50:00,54.5,37.2,52,26,55.2,0,6.8,200,10.7,0,0.00,0.00,0.00,51.7,53.1
10min,FGNet,Santaquin,42.01,20OCT2017:02:00:00,55.2,37.1,50,26,55.3,0,8.2,197,12.8,0,0.00,0.00,0.00,52.8,54.1
10min,FGNet,Santaquin,42.01,20OCT2017:02:10:00,53.6,36.8,53,25,55.2,0,7.8,192,10.1,0,0.00,0.00,0.00,51.4,52.6
10min,FGNet,Santaquin,42.01,20OCT2017:02:20:00,53.1,36.9,54,26,55.2,0,7.5,199,10.8,0,0.00,0.00,0.00,50.6,51.7
10min,FGNet,Santaquin,42.01,20OCT2017:02:30:00,53.4,36.7,53,25,55.1,0,8.5,190,12.3,0,0.00,0.00,0.00,50.6,51.9
10min,FGNet,Santaquin,42.01,20OCT2017:02:40:00,52.8,36.3,53,26,55.1,0,7.8,193,11.7,0,0.00,0.00,0.00,50.6,51.7
10min,FGNet,Santaquin,42.01,20OCT2017:02:50:00,53.0,35.8,52,25,55.1,0,8.0,182,10.7,0,0.00,0.00,0.00,51.5,52.5
10min,FGNet,Santaquin,42.01,20OCT2017:03:00:00,53.9,35.3,49,26,55.1,0,8.5,183,10.5,0,0.00,0.00,0.00,50.7,52.3
10min,FGNet,Santaquin,42.01,20OCT2017:03:10:00,54.0,34.6,48,0,32.0,0,7.8,165,10.5,0,0.00,0.00,0.00,51.9,53.0
10min,FGNet,Santaquin,42.01,20OCT2017:03:20:00,55.5,34.1,44,25,55.0,0,9.3,175,12.1,0,0.00,0.00,0.00,53.0,54.1
10min,FGNet,Santaquin,42.01,20OCT2017:03:30:00,54.5,34.4,46,26,55.0,0,8.3,173,12.6,0,0.00,0.00,0.00,51.5,52.7
10min,FGNet,Santaquin,42.01,20OCT2017:03:40:00,53.9,33.6,46,25,55.0,0,8.6,165,11.0,0,0.00,0.00,0.00,51.5,52.6
10min,FGNet,Santaquin,42.01,20OCT2017:03:50:00,54.7,33.2,44,25,54.9,0,9.3,168,12.5,0,0.00,0.00,0.00,52.6,53.5
10min,FGNet,Santaquin,42.01,20OCT2017:04:00:00,55.6,32.5,41,25,54.9,0,10.6,166,14.4,0,0.00,0.00,0.00,53.4,54.5
10min,FGNet,Santaquin,42.01,20OCT2017:04:10:00,55.9,32.2,40,25,54.9,0,9.6,168,13.5,0,0.00,0.00,0.00,53.3,54.4
10min,FGNet,Santaquin,42.01,20OCT2017:04:20:00,55.6,32.5,41,25,54.9,0,9.8,163,13.9,0,0.00,0.00,0.00,52.8,54.0
10min,FGNet,Santaquin,42.01,20OCT2017:04:30:00,55.3,32.3,41,26,54.8,0,11.2,169,15.3,0,0.00,0.00,0.00,53.7,54.6
10min,FGNet,Santaquin,42.01,20OCT2017:04:40:00,53.0,33.3,47,26,54.8,0,11.6,183,14.6,0,0.00,0.00,0.00,50.3,51.4
10min,FGNet,Santaquin,42.01,20OCT2017:04:50:00,52.5,32.2,46,26,54.8,0,9.1,181,12.3,0,0.00,0.00,0.00,51.2,52.1
10min,FGNet,Santaquin,42.01,20OCT2017:05:00:00,53.6,32.0,44,26,54.8,0,8.7,183,11.7,0,0.00,0.00,0.00,51.7,52.6
10min,FGNet,Santaquin,42.01,20OCT2017:05:10:00,52.0,32.2,47,25,54.7,0,8.4,180,12.6,0,0.00,0.00,0.00,50.1,50.9
10min,FGNet,Santaquin,42.01,20OCT2017:05:20:00,53.4,32.5,45,25,54.6,0,8.5,176,11.9,0,0.00,0.00,0.00,50.8,51.7
10min,FGNet,Santaquin,42.01,20OCT2017:05:30:00,52.3,31.8,45,26,54.6,0,7.9,178,11.0,0,0.00,0.00,0.00,50.3,51.4
10min,FGNet,Santaquin,42.01,20OCT2017:05:40:00,50.8,33.1,51,26,54.6,0,7.0,216,10.1,0,0.00,0.00,0.00,48.3,49.4
10min,FGNet,Santaquin,42.01,20OCT2017:05:50:00,49.8,32.8,52,25,54.6,0,4.3,208,9.1,0,0.00,0.00,0.00,45.4,47.6
10min,FGNet,Santaquin,42.01,20OCT2017:06:00:00,50.5,31.3,48,26,54.6,0,5.0,158,8.5,0,0.00,0.00,0.00,49.1,50.0
10min,FGNet,Santaquin,42.01,20OCT2017:06:10:00,52.4,30.9,44,26,54.5,0,7.7,165,11.9,0,0.00,0.00,0.00,50.5,51.5
10min,FGNet,Santaquin,42.01,20OCT2017:06:20:00,54.1,30.4,40,25,54.5,0,9.7,178,13.2,0,0.00,0.00,0.00,51.5,52.8
10min,FGNet,Santaquin,42.01,20OCT2017:06:30:00,52.7,30.6,43,26,54.5,1,9.7,195,15.0,0,0.00,0.00,0.00,50.3,51.5
10min,FGNet,Santaquin,42.01,20OCT2017:06:40:00,51.6,30.7,45,25,54.5,3,7.5,187,10.5,0,0.00,0.00,0.00,48.9,50.3
10min,FGNet,Santaquin,42.01,20OCT2017:06:50:00,52.8,29.9,41,25,54.4,6,8.4,188,13.0,0,0.00,0.00,0.00,50.4,51.9
10min,FGNet,Santaquin,42.01,20OCT2017:07:00:00,52.5,29.9,42,26,54.4,6,6.9,197,10.5,0,0.00,0.00,0.00,48.8,50.6
10min,FGNet,Santaquin,42.01,20OCT2017:07:10:00,53.3,29.0,39,25,54.4,9,6.2,192,12.3,0,0.00,0.00,0.00,50.8,52.2
10min,FGNet,Santaquin,42.01,20OCT2017:07:20:00,53.9,28.9,38,25,54.3,13,8.4,175,11.9,0,0.00,0.00,0.00,51.8,52.7
10min,FGNet,Santaquin,42.01,20OCT2017:07:30:00,55.0,28.3,36,25,54.3,19,9.7,171,15.5,0,0.00,0.00,0.00,53.7,54.6
10min,FGNet,Santaquin,42.01,20OCT2017:07:40:00,55.6,27.6,34,26,54.3,21,10.6,174,15.1,0,0.00,0.00,0.00,54.1,54.9
10min,FGNet,Santaquin,42.01,20OCT2017:07:50:00,54.9,28.8,36,26,54.2,24,10.4,175,14.4,0,0.00,0.00,0.00,53.1,53.8
10min,FGNet,Santaquin,42.01,20OCT2017:08:00:00,54.7,29.3,37,26,54.2,144,9.4,176,14.4,0,0.00,0.00,0.00,55.7,54.5
10min,FGNet,Santaquin,42.01,20OCT2017:08:10:00,55.7,29.6,37,25,54.1,218,12.0,178,16.7,0,0.00,0.00,0.00,57.8,56.2
10min,FGNet,Santaquin,42.01,20OCT2017:08:20:00,56.2,30.5,37,26,54.1,246,12.0,171,16.4,0,0.00,0.00,0.00,62.1,56.9
10min,FGNet,Santaquin,42.01,20OCT2017:08:30:00,56.4,30.5,37,25,54.1,274,12.5,175,17.1,0,0.00,0.00,0.00,59.0,55.7
10min,FGNet,Santaquin,42.01,20OCT2017:08:40:00,56.6,31.7,39,25,54.1,303,10.6,164,15.1,0,0.00,0.00,0.00,63.3,58.9
10min,FGNet,Santaquin,42.01,20OCT2017:08:50:00,58.6,31.3,35,25,54.1,329,10.3,147,14.1,0,0.00,0.00,0.00,62.3,61.3
10min,FGNet,Santaquin,42.01,20OCT2017:09:00:00,62.2,29.5,29,25,54.1,352,10.4,174,17.3,0,0.00,0.00,0.00,64.0,64.8
10min,FGNet,Santaquin,42.01,20OCT2017:09:10:00,63.5,29.7,28,25,54.0,377,14.4,193,21.2,0,0.00,0.00,0.00,68.2,63.7
10min,FGNet,Santaquin,42.01,20OCT2017:09:20:00,63.8,29.2,27,25,53.9,401,15.2,196,20.3,0,0.00,0.00,0.00,67.9,65.7
10min,FGNet,Santaquin,42.01,20OCT2017:09:30:00,64.6,28.6,26,25,53.9,426,13.9,204,21.8,0,0.00,0.00,0.00,67.9,66.6
10min,FGNet,Santaquin,42.01,20OCT2017:09:40:00,66.1,26.3,22,25,53.9,451,15.9,201,24.6,0,0.00,0.00,0.00,67.2,66.4
10min,FGNet,Santaquin,42.01,20OCT2017:09:50:00,66.4,26.5,22,25,53.9,474,16.3,206,24.8,0,0.00,0.00,0.00,68.9,68.1
10min,FGNet,Santaquin,42.01,20OCT2017:10:00:00,66.8,24.8,20,25,53.9,492,18.6,205,27.0,0,0.00,0.00,0.00,67.9,68.9
10min,FGNet,Santaquin,42.01,20OCT2017:10:10:00,67.0,25.5,21,25,53.9,515,20.0,198,26.6,0,0.00,0.00,0.00,69.7,69.2
10min,FGNet,Santaquin,42.01,20OCT2017:10:20:00,67.4,24.9,20,25,53.9,536,18.5,216,25.9,0,0.00,0.00,0.00,70.4,69.9
10min,FGNet,Santaquin,42.01,20OCT2017:10:30:00,67.2,23.8,19,25,53.9,557,18.2,213,25.5,0,0.00,0.00,0.00,69.6,69.5
10min,FGNet,Santaquin,42.01,20OCT2017:10:40:00,65.9,25.3,21,25,53.9,177,17.2,200,24.4,0,0.00,0.00,0.00,65.9,66.2
10min,FGNet,Santaquin,42.01,20OCT2017:10:50:00,64.2,24.8,22,26,53.9,126,16.8,201,24.6,0,0.00,0.00,0.00,64.1,64.5
10min,FGNet,Santaquin,42.01,20OCT2017:11:00:00,66.9,24.7,20,25,54.0,618,15.1,209,23.0,0,0.00,0.00,0.00,71.7,71.0
10min,FGNet,Santaquin,42.01,20OCT2017:11:10:00,67.1,25.8,21,25,54.0,472,17.0,210,24.1,0,0.00,0.00,0.00,72.8,70.2
10min,FGNet,Santaquin,42.01,20OCT2017:11:20:00,66.3,24.9,21,25,54.1,332,13.7,208,20.2,0,0.00,0.00,0.00,70.2,68.3
10min,FGNet,Santaquin,42.01,20OCT2017:11:30:00,66.5,24.1,20,25,54.1,294,12.8,206,18.4,0,0.00,0.00,0.00,70.4,68.3
10min,FGNet,Santaquin,42.01,20OCT2017:11:40:00,66.4,20.9,17,25,54.2,276,14.0,225,18.9,0,0.00,0.00,0.00,70.3,67.8
10min,FGNet,Santaquin,42.01,20OCT2017:11:50:00,66.4,23.1,19,25,54.3,273,13.0,221,19.4,0,0.00,0.00,0.00,71.5,68.5
10min,FGNet,Santaquin,42.01,20OCT2017:12:00:00,66.4,23.0,19,25,54.4,309,14.4,222,22.3,0,0.00,0.00,0.00,70.7,68.1
10min,FGNet,Santaquin,42.01,20OCT2017:12:10:00,65.9,22.5,19,25,54.5,304,14.4,236,24.1,0,0.00,0.00,0.00,70.1,67.7
10min,FGNet,Santaquin,42.01,20OCT2017:12:20:00,65.6,26.4,23,25,54.6,253,13.9,235,21.0,0,0.00,0.00,0.00,66.1,64.9
10min,FGNet,Santaquin,42.01,20OCT2017:12:30:00,59.3,27.1,29,25,54.6,214,14.6,294,25.5,0,0.00,0.00,0.00,61.1,59.6
10min,FGNet,Santaquin,42.01,20OCT2017:12:40:00,56.4,27.0,32,25,54.8,242,21.5,299,30.4,0,0.00,0.00,0.00,59.0,56.9
10min,FGNet,Santaquin,42.01,20OCT2017:12:50:00,55.1,27.7,35,25,54.9,226,19.6,296,30.4,0,0.00,0.00,0.00,57.5,55.8
10min,FGNet,Santaquin,42.01,20OCT2017:13:00:00,55.0,27.3,34,25,54.9,195,16.5,297,25.0,0,0.00,0.00,0.00,58.1,56.4
10min,FGNet,Santaquin,42.01,20OCT2017:13:10:00,54.8,26.1,33,25,55.0,84,12.4,290,22.7,0,0.00,0.00,0.00,55.7,55.0
10min,FGNet,Santaquin,42.01,20OCT2017:13:20:00,53.6,29.1,39,25,55.1,56,13.3,322,21.4,0,0.00,0.00,0.00,53.9,53.4
10min,FGNet,Santaquin,42.01,20OCT2017:13:30:00,52.3,28.8,40,25,55.2,63,9.2,122,18.9,0,0.00,0.00,0.00,53.4,52.8
10min,FGNet,Santaquin,42.01,20OCT2017:13:40:00,51.2,29.6,43,25,55.3,60,10.4,59,16.2,0,0.00,0.00,0.00,51.8,51.4
10min,FGNet,Santaquin,42.01,20OCT2017:13:50:00,50.6,30.5,46,25,55.3,59,10.6,36,16.4,0,0.00,0.00,0.00,51.5,51.1
10min,FGNet,Santaquin,42.01,20OCT2017:14:00:00,50.0,29.6,45,26,55.4,49,10.0,50,16.0,0,0.00,0.00,0.00,50.8,50.4
10min,FGNet,Santaquin,42.01,20OCT2017:14:10:00,49.6,29.4,45,26,55.4,50,12.2,98,17.8,0,0.00,0.00,0.00,50.2,49.9
10min,FGNet,Santaquin,42.01,20OCT2017:14:20:00,48.8,30.6,49,26,55.5,47,14.4,88,20.5,0,0.00,0.00,0.00,48.9,48.8
10min,FGNet,Santaquin,42.01,20OCT2017:14:30:00,47.9,31.2,52,25,55.5,44,13.3,91,20.2,0,0.00,0.00,0.00,48.0,47.8
10min,FGNet,Santaquin,42.01,20OCT2017:14:40:00,46.4,34.5,63,25,55.6,40,10.6,40,15.7,20,0.00,0.00,0.00,44.1,44.1
10min,FGNet,Santaquin,42.01,20OCT2017:14:50:00,45.0,36.4,72,26,55.6,38,9.4,64,14.8,93,0.00,0.00,0.00,42.8,42.4
10min,FGNet,Santaquin,42.01,20OCT2017:15:00:00,43.7,36.2,75,25,55.6,68,12.6,64,17.3,100,0.00,0.00,0.00,41.9,41.9
10min,FGNet,Santaquin,42.01,20OCT2017:15:10:00,43.3,36.2,76,25,55.6,54,11.1,143,19.4,100,0.00,0.00,0.00,42.0,43.3
10min,FGNet,Santaquin,42.01,20OCT2017:15:20:00,43.1,34.8,72,27,55.6,46,9.5,87,15.5,100,0.00,0.00,0.00,41.7,42.0
10min,FGNet,Santaquin,42.01,20OCT2017:15:30:00,43.0,34.8,73,25,55.6,32,8.6,88,13.2,100,0.00,0.00,0.00,41.0,41.0
10min,FGNet,Santaquin,42.01,20OCT2017:15:40:00,42.1,34.8,75,25,55.6,23,7.6,154,10.5,100,0.00,0.00,0.00,40.2,39.1
10min,FGNet,Santaquin,42.01,20OCT2017:15:50:00,41.7,34.9,76,26,55.6,62,5.6,78,12.1,100,0.01,0.01,0.01,40.8,39.2
10min,FGNet,Santaquin,42.01,20OCT2017:16:00:00,41.5,36.3,81,25,55.6,98,7.2,67,10.8,100,0.00,0.01,0.01,42.3,40.6
10min,FGNet,Santaquin,42.01,20OCT2017:16:10:00,41.7,35.6,79,25,55.6,59,5.9,65,8.7,100,0.01,0.01,0.02,41.4,40.4
10min,FGNet,Santaquin,42.01,20OCT2017:16:20:00,42.1,35.1,76,26,55.5,153,6.6,63,9.4,100,0.00,0.01,0.02,42.9,42.8
10min,FGNet,Santaquin,42.01,20OCT2017:16:30:00,41.7,34.1,74,25,55.5,93,7.1,64,12.3,100,0.00,0.01,0.02,42.0,42.0
10min,FGNet,Santaquin,42.01,20OCT2017:16:40:00,41.8,34.1,74,26,55.4,79,5.7,68,10.3,100,0.00,0.01,0.02,43.2,42.6
10min,FGNet,Santaquin,42.01,20OCT2017:16:50:00,42.2,34.7,75,25,55.4,79,5.9,60,10.5,100,0.00,0.01,0.02,43.1,42.9
10min,FGNet,Santaquin,42.01,20OCT2017:17:00:00,42.3,34.6,74,25,55.3,53,5.8,72,9.2,100,0.00,0.01,0.02,42.3,42.3
10min,FGNet,Santaquin,42.01,20OCT2017:17:10:00,42.3,32.8,69,25,55.3,22,6.2,72,9.4,100,0.00,0.00,0.02,40.6,41.2
10min,FGNet,Santaquin,42.01,20OCT2017:17:20:00,42.7,30.9,63,25,55.3,27,8.9,72,13.5,100,0.00,0.00,0.02,42.0,42.1
10min,FGNet,Santaquin,42.01,20OCT2017:17:30:00,42.8,30.4,61,26,55.2,22,7.3,67,11.6,100,0.00,0.00,0.02,42.3,42.5
10min,FGNet,Santaquin,42.01,20OCT2017:17:40:00,43.0,31.1,62,25,55.2,7,7.6,95,13.2,100,0.00,0.00,0.02,41.2,41.8
10min,FGNet,Santaquin,42.01,20OCT2017:17:50:00,42.9,31.2,63,26,55.1,1,7.3,99,12.1,100,0.00,0.00,0.02,40.2,41.1
10min,FGNet,Santaquin,42.01,20OCT2017:18:00:00,42.2,31.8,66,25,55.0,0,5.2,50,8.9,100,0.00,0.00,0.02,37.4,39.3
10min,FGNet,Santaquin,42.01,20OCT2017:18:10:00,41.7,30.6,65,25,54.9,0,4.8,60,6.9,100,0.00,0.00,0.02,39.0,39.8
10min,FGNet,Santaquin,42.01,20OCT2017:18:20:00,41.8,31.1,65,26,54.8,0,5.2,59,7.1,100,0.00,0.00,0.02,37.6,39.3
10min,FGNet,Santaquin,42.01,20OCT2017:18:30:00,41.6,30.0,63,25,54.8,0,4.9,58,7.8,100,0.00,0.00,0.02,38.3,39.5
10min,FGNet,Santaquin,42.01,20OCT2017:18:40:00,42.0,30.5,63,25,54.8,0,5.6,78,8.0,100,0.00,0.00,0.02,37.6,39.7
10min,FGNet,Santaquin,42.01,20OCT2017:18:50:00,41.1,30.4,66,25,54.6,0,3.3,69,5.5,100,0.00,0.00,0.02,35.2,37.0
10min,FGNet,Santaquin,42.01,20OCT2017:19:00:00,39.4,30.4,70,25,54.6,0,2.7,251,4.2,100,0.00,0.00,0.02,34.5,36.9
10min,FGNet,Santaquin,42.01,20OCT2017:19:10:00,39.3,30.0,69,26,54.5,0,2.2,230,4.0,100,0.00,0.00,0.02,34.3,37.4
10min,FGNet,Santaquin,42.01,20OCT2017:19:20:00,38.6,30.5,72,26,54.4,0,0.8,306,2.3,100,0.00,0.00,0.02,31.9,35.0
10min,FGNet,Santaquin,42.01,20OCT2017:19:30:00,37.2,30.6,77,25,54.4,0,1.9,132,2.8,100,0.00,0.00,0.02,31.3,33.1
10min,FGNet,Santaquin,42.01,20OCT2017:19:40:00,36.4,30.6,79,25,54.3,0,2.8,114,4.0,100,0.00,0.00,0.02,32.0,33.7
10min,FGNet,Santaquin,42.01,20OCT2017:19:50:00,36.5,29.7,76,26,54.2,0,3.6,119,4.4,100,0.00,0.00,0.02,32.9,33.7
10min,FGNet,Santaquin,42.01,20OCT2017:20:00:00,36.3,29.4,76,25,54.1,0,3.7,118,4.8,100,0.00,0.00,0.02,31.5,33.0
10min,FGNet,Santaquin,42.01,20OCT2017:20:10:00,35.7,29.6,78,25,54.1,0,3.2,105,4.2,100,0.00,0.00,0.02,31.2,32.4
10min,FGNet,Santaquin,42.01,20OCT2017:20:20:00,35.2,29.0,78,26,53.9,0,3.5,141,4.4,100,0.00,0.00,0.02,30.9,33.3
10min,FGNet,Santaquin,42.01,20OCT2017:20:30:00,35.8,28.7,75,25,53.8,0,3.5,181,4.6,100,0.00,0.00,0.02,32.3,34.1
10min,FGNet,Santaquin,42.01,20OCT2017:20:40:00,36.4,28.2,72,25,53.8,0,3.1,151,4.0,100,0.00,0.00,0.02,31.9,34.5
10min,FGNet,Santaquin,42.01,20OCT2017:20:50:00,35.4,27.6,73,25,53.7,0,3.1,164,3.9,100,0.00,0.00,0.02,31.3,33.4
10min,FGNet,Santaquin,42.01,20OCT2017:21:00:00,35.3,28.7,76,26,53.5,0,3.2,132,4.6,100,0.00,0.00,0.02,30.6,31.7
10min,FGNet,Santaquin,42.01,20OCT2017:21:10:00,35.2,28.0,75,26,53.5,0,4.5,119,5.1,100,0.00,0.00,0.02,30.5,31.9
10min,FGNet,Santaquin,42.01,20OCT2017:21:20:00,35.5,28.0,74,25,53.3,0,4.0,123,4.9,100,0.00,0.00,0.02,30.9,32.2
10min,FGNet,Santaquin,42.01,20OCT2017:21:30:00,35.4,28.4,75,26,53.3,0,2.7,125,4.9,100,0.00,0.00,0.02,32.5,34.2
10min,FGNet,Santaquin,42.01,20OCT2017:21:40:00,35.5,28.2,74,26,53.2,0,2.6,142,3.9,100,0.00,0.00,0.02,30.0,32.6
10min,FGNet,Santaquin,42.01,20OCT2017:21:50:00,34.8,27.8,75,25,53.1,0,2.9,122,4.4,100,0.00,0.00,0.02,29.4,31.3
10min,FGNet,Santaquin,42.01,20OCT2017:22:00:00,35.2,26.8,71,25,53.0,0,4.2,125,6.2,100,0.00,0.00,0.02,31.7,32.8
10min,FGNet,Santaquin,42.01,20OCT2017:22:10:00,35.2,26.3,70,25,52.9,0,3.3,134,5.1,100,0.00,0.00,0.02,33.4,34.6
10min,FGNet,Santaquin,42.01,20OCT2017:22:20:00,35.6,26.1,68,26,52.8,0,1.4,124,4.2,100,0.00,0.00,0.02,28.7,31.6
10min,FGNet,Santaquin,42.01,20OCT2017:22:30:00,34.1,26.1,72,26,52.6,0,2.3,136,4.4,100,0.00,0.00,0.02,29.7,30.9
10min,FGNet,Santaquin,42.01,20OCT2017:22:40:00,34.3,25.2,69,25,52.6,0,4.1,131,5.1,100,0.00,0.00,0.02,30.1,31.3
10min,FGNet,Santaquin,42.01,20OCT2017:22:50:00,34.4,24.7,67,25,52.5,0,3.6,128,5.1,100,0.00,0.00,0.02,29.8,31.6
10min,FGNet,Santaquin,42.01,20OCT2017:23:00:00,33.8,24.4,68,26,52.4,0,3.5,141,4.8,100,0.00,0.00,0.02,27.8,30.1
10min,FGNet,Santaquin,42.01,20OCT2017:23:10:00,32.7,24.5,71,26,52.3,0,2.3,126,4.4,100,0.00,0.00,0.02,28.8,30.5
10min,FGNet,Santaquin,42.01,20OCT2017:23:20:00,33.1,24.1,69,26,52.2,0,3.7,140,4.9,100,0.00,0.00,0.02,29.1,30.4
10min,FGNet,Santaquin,42.01,20OCT2017:23:30:00,32.8,23.4,68,26,52.1,0,3.7,119,4.8,100,0.00,0.00,0.02,28.9,30.2
10min,FGNet,Santaquin,42.01,20OCT2017:23:40:00,32.7,23.2,68,26,52.0,0,3.4,137,4.4,57,0.00,0.00,0.02,27.8,29.7
10min,FGNet,Santaquin,42.01,20OCT2017:23:50:00,32.9,22.4,65,25,51.9,0,3.6,149,4.2,0,0.00,0.00,0.02,28.3,30.3
10min,FGNet,Kaysville,42.03,20OCT2017:00:00:00,60.9,36.7,40,12,55.9,0,3.5,128,4.6,0,0.00,0.00,0.00,56.2,57.6
10min,FGNet,Kaysville,42.03,20OCT2017:00:10:00,61.0,36.5,40,12,55.6,0,4.5,122,5.8,0,0.00,0.00,0.00,57.3,58.5
10min,FGNet,Kaysville,42.03,20OCT2017:00:20:00,63.0,36.1,37,12,55.4,0,5.1,135,7.3,0,0.00,0.00,0.00,59.4,60.8
10min,FGNet,Kaysville,42.03,20OCT2017:00:30:00,63.5,36.1,36,12,55.6,0,4.9,136,6.7,0,0.00,0.00,0.00,60.3,61.3
10min,FGNet,Kaysville,42.03,20OCT2017:00:40:00,63.6,36.3,36,12,55.6,0,4.8,138,6.9,0,0.00,0.00,0.00,59.7,60.9
10min,FGNet,Kaysville,42.03,20OCT2017:00:50:00,64.1,35.7,35,12,55.6,0,5.1,137,7.1,0,0.00,0.00,0.00,60.8,62.3
10min,FGNet,Kaysville,42.03,20OCT2017:01:00:00,64.7,35.5,34,12,55.6,0,5.8,146,8.7,0,0.00,0.00,0.00,62.2,63.2
10min,FGNet,Kaysville,42.03,20OCT2017:01:10:00,65.1,35.7,33,12,55.6,0,6.2,145,9.2,0,0.00,0.00,0.00,61.7,63.1
10min,FGNet,Kaysville,42.03,20OCT2017:01:20:00,65.0,35.4,33,12,55.6,0,6.2,149,9.4,0,0.00,0.00,0.00,61.6,63.1
10min,FGNet,Kaysville,42.03,20OCT2017:01:30:00,65.3,35.3,33,12,55.8,0,7.3,153,11.2,0,0.00,0.00,0.00,62.8,63.8
10min,FGNet,Kaysville,42.03,20OCT2017:01:40:00,65.7,35.1,32,12,55.6,0,7.8,153,11.7,0,0.00,0.00,0.00,62.5,63.8
10min,FGNet,Kaysville,42.03,20OCT2017:01:50:00,65.9,35.0,32,12,55.6,0,8.0,154,13.2,0,0.00,0.00,0.00,63.2,64.2
10min,FGNet,Kaysville,42.03,20OCT2017:02:00:00,65.8,34.9,32,12,55.6,0,8.2,154,14.1,0,0.00,0.00,0.00,63.0,64.2
10min,FGNet,Kaysville,42.03,20OCT2017:02:10:00,66.0,34.4,31,12,55.6,0,8.5,148,14.2,0,0.00,0.00,0.00,63.2,64.2
10min,FGNet,Kaysville,42.03,20OCT2017:02:20:00,66.3,34.0,30,12,55.6,0,10.1,149,16.6,0,0.00,0.00,0.00,63.5,64.5
10min,FGNet,Kaysville,42.03,20OCT2017:02:30:00,65.6,33.7,30,12,55.6,0,8.2,153,12.5,0,0.00,0.00,0.00,62.4,63.8
10min,FGNet,Kaysville,42.03,20OCT2017:02:40:00,65.7,33.4,30,12,55.4,0,7.9,152,13.2,0,0.00,0.00,0.00,62.8,63.9
10min,FGNet,Kaysville,42.03,20OCT2017:02:50:00,65.4,33.2,30,12,55.6,0,8.4,151,13.3,0,0.00,0.00,0.00,62.9,64.0
10min,FGNet,Kaysville,42.03,20OCT2017:03:00:00,65.1,33.3,30,12,55.2,0,8.1,147,11.7,0,0.00,0.00,0.00,62.6,63.5
10min,FGNet,Kaysville,42.03,20OCT2017:03:10:00,65.1,33.2,30,12,55.4,0,7.8,143,11.9,0,0.00,0.00,0.00,63.1,63.9
10min,FGNet,Kaysville,42.03,20OCT2017:03:20:00,65.0,33.8,31,12,55.4,0,8.0,143,12.1,0,0.00,0.00,0.00,61.8,62.9
10min,FGNet,Kaysville,42.03,20OCT2017:03:30:00,64.7,33.8,31,12,55.4,0,7.7,152,13.2,0,0.00,0.00,0.00,61.1,62.5
10min,FGNet,Kaysville,42.03,20OCT2017:03:40:00,64.3,33.5,32,12,55.4,0,7.3,146,10.8,0,0.00,0.00,0.00,61.2,62.4
10min,FGNet,Kaysville,42.03,20OCT2017:03:50:00,64.0,33.5,32,12,55.4,0,7.7,145,13.9,0,0.00,0.00,0.00,62.5,63.0
10min,FGNet,Kaysville,42.03,20OCT2017:04:00:00,63.4,34.1,33,12,55.4,0,8.8,152,16.4,0,0.00,0.00,0.00,60.5,61.7
10min,FGNet,Kaysville,42.03,20OCT2017:04:10:00,63.3,33.5,33,12,55.4,0,8.4,147,13.5,0,0.00,0.00,0.00,60.7,62.0
10min,FGNet,Kaysville,42.03,20OCT2017:04:20:00,64.1,32.7,31,12,55.2,0,9.7,149,15.3,0,0.00,0.00,0.00,61.8,62.8
10min,FGNet,Kaysville,42.03,20OCT2017:04:30:00,64.7,32.3,30,12,55.4,0,10.3,150,16.7,0,0.00,0.00,0.00,62.3,63.2
10min,FGNet,Kaysville,42.03,20OCT2017:04:40:00,64.5,32.1,30,12,55.2,0,9.8,154,14.1,0,0.00,0.00,0.00,62.1,63.2
10min,FGNet,Kaysville,42.03,20OCT2017:04:50:00,64.7,31.9,29,12,55.4,0,10.7,159,18.2,0,0.00,0.00,0.00,63.3,63.9
10min,FGNet,Kaysville,42.03,20OCT2017:05:00:00,64.8,31.5,29,12,55.0,0,9.9,149,17.5,0,0.00,0.00,0.00,63.5,63.9
10min,FGNet,Kaysville,42.03,20OCT2017:05:10:00,65.2,31.3,28,12,55.4,0,10.3,150,17.3,0,0.00,0.00,0.00,62.7,63.6
10min,FGNet,Kaysville,42.03,20OCT2017:05:20:00,64.7,31.3,28,12,55.4,0,8.9,150,14.1,0,0.00,0.00,0.00,62.3,63.2
10min,FGNet,Kaysville,42.03,20OCT2017:05:30:00,64.3,31.4,29,12,55.2,0,9.6,159,15.0,0,0.00,0.00,0.00,62.5,63.3
10min,FGNet,Kaysville,42.03,20OCT2017:05:40:00,63.9,31.0,29,12,55.2,0,9.6,160,15.3,0,0.00,0.00,0.00,61.9,62.7
10min,FGNet,Kaysville,42.03,20OCT2017:05:50:00,63.8,30.6,29,12,55.2,0,9.0,160,14.1,0,0.00,0.00,0.00,61.1,62.4
10min,FGNet,Kaysville,42.03,20OCT2017:06:00:00,62.4,31.6,31,12,55.0,0,5.9,157,10.1,0,0.00,0.00,0.00,58.4,59.9
10min,FGNet,Kaysville,42.03,20OCT2017:06:10:00,61.8,31.8,32,12,55.0,0,7.3,147,9.9,0,0.00,0.00,0.00,58.7,60.0
10min,FGNet,Kaysville,42.03,20OCT2017:06:20:00,61.4,31.7,33,12,55.0,0,8.1,150,13.3,0,0.00,0.00,0.00,58.6,59.8
10min,FGNet,Kaysville,42.03,20OCT2017:06:30:00,61.0,31.7,33,12,55.0,0,6.9,154,13.0,0,0.00,0.00,0.00,58.1,59.2
10min,FGNet,Kaysville,42.03,20OCT2017:06:40:00,60.2,32.4,35,12,55.0,2,6.5,155,9.8,0,0.00,0.00,0.00,56.2,58.1
10min,FGNet,Kaysville,42.03,20OCT2017:06:50:00,59.9,32.0,35,12,55.0,5,7.6,160,11.2,0,0.00,0.00,0.00,57.4,58.5
10min,FGNet,Kaysville,42.03,20OCT2017:07:00:00,61.0,30.1,31,12,55.0,6,8.4,156,14.2,0,0.00,0.00,0.00,59.5,60.5
10min,FGNet,Kaysville,42.03,20OCT2017:07:10:00,63.0,28.3,27,12,55.0,10,9.4,160,17.1,0,0.00,0.00,0.00,61.2,62.1
10min,FGNet,Kaysville,42.03,20OCT2017:07:20:00,64.4,27.1,24,12,55.0,21,10.0,160,14.8,0,0.00,0.00,0.00,63.4,64.0
10min,FGNet,Kaysville,42.03,20OCT2017:07:30:00,64.8,27.8,25,12,55.0,96,8.8,162,15.0,0,0.00,0.00,0.00,63.8,64.5
10min,FGNet,Kaysville,42.03,20OCT2017:07:40:00,64.9,28.5,25,12,55.0,124,8.0,169,12.5,0,0.00,0.00,0.00,64.1,64.4
10min,FGNet,Kaysville,42.03,20OCT2017:07:50:00,65.0,29.5,26,12,55.2,147,7.2,180,12.3,0,0.00,0.00,0.00,64.3,64.3
10min,FGNet,Kaysville,42.03,20OCT2017:08:00:00,64.7,29.6,27,12,54.9,174,7.7,187,11.6,0,0.00,0.00,0.00,64.6,64.0
10min,FGNet,Kaysville,42.03,20OCT2017:08:10:00,65.0,29.6,26,12,54.7,200,7.7,191,11.9,0,0.00,0.00,0.00,67.2,65.8
10min,FGNet,Kaysville,42.03,20OCT2017:08:20:00,65.7,30.0,26,12,54.7,229,9.3,189,14.2,0,0.00,0.00,0.00,65.5,66.5
10min,FGNet,Kaysville,42.03,20OCT2017:08:30:00,66.3,30.3,26,12,54.9,273,7.0,184,11.6,0,0.00,0.00,0.00,68.9,67.5
10min,FGNet,Kaysville,42.03,20OCT2017:08:40:00,66.5,29.7,25,12,54.9,376,8.7,188,12.3,0,0.00,0.00,0.00,71.4,68.6
10min,FGNet,Kaysville,42.03,20OCT2017:08:50:00,66.9,29.2,24,12,54.7,95,9.5,192,18.7,0,0.00,0.00,0.00,67.0,66.6
10min,FGNet,Kaysville,42.03,20OCT2017:09:00:00,66.2,29.2,25,12,54.7,88,10.9,183,18.9,0,0.00,0.00,0.00,66.6,66.0
10min,FGNet,Kaysville,42.03,20OCT2017:09:10:00,66.2,29.0,25,12,54.9,106,11.6,180,19.3,0,0.00,0.00,0.00,67.2,66.1
10min,FGNet,Kaysville,42.03,20OCT2017:09:20:00,66.2,29.1,25,12,54.9,131,10.5,188,15.1,0,0.00,0.00,0.00,67.6,66.4
10min,FGNet,Kaysville,42.03,20OCT2017:09:30:00,66.5,29.0,24,12,54.9,144,10.9,194,17.8,0,0.00,0.00,0.00,68.5,66.8
10min,FGNet,Kaysville,42.03,20OCT2017:09:40:00,66.4,30.1,26,12,54.7,159,10.6,201,17.8,0,0.00,0.00,0.00,68.8,66.7
10min,FGNet,Kaysville,42.03,20OCT2017:09:50:00,66.5,30.4,26,12,54.7,144,10.1,198,15.3,0,0.00,0.00,0.00,68.7,66.8
10min,FGNet,Kaysville,42.03,20OCT2017:10:00:00,66.7,30.4,26,12,54.5,172,8.1,202,12.1,0,0.00,0.00,0.00,69.5,67.2
10min,FGNet,Kaysville,42.03,20OCT2017:10:10:00,67.4,27.4,22,12,54.7,172,7.3,206,12.3,0,0.00,0.00,0.00,70.2,67.7
10min,FGNet,Kaysville,42.03,20OCT2017:10:20:00,67.6,24.7,20,12,55.0,191,9.4,229,15.9,0,0.00,0.00,0.00,70.1,68.3
10min,FGNet,Kaysville,42.03,20OCT2017:10:30:00,67.5,26.0,21,12,55.0,140,13.2,244,18.5,0,0.00,0.00,0.00,68.9,67.6
10min,FGNet,Kaysville,42.03,20OCT2017:10:40:00,56.2,33.0,41,12,54.5,165,23.5,295,33.8,0,0.00,0.00,0.00,57.5,55.9
10min,FGNet,Kaysville,42.03,20OCT2017:10:50:00,55.4,33.4,43,12,55.0,228,24.1,303,32.3,0,0.00,0.00,0.00,58.4,56.2
10min,FGNet,Kaysville,42.03,20OCT2017:11:00:00,54.5,33.3,44,12,54.9,221,21.7,304,31.8,0,0.00,0.00,0.00,57.5,55.3
10min,FGNet,Kaysville,42.03,20OCT2017:11:10:00,54.3,34.0,46,12,54.7,117,17.5,307,27.7,0,0.00,0.00,0.00,55.2,54.2
10min,FGNet,Kaysville,42.03,20OCT2017:11:20:00,53.9,33.9,47,12,55.0,62,14.3,315,23.0,0,0.00,0.00,0.00,54.6,54.0
10min,FGNet,Kaysville,42.03,20OCT2017:11:30:00,54.1,31.5,42,12,54.7,95,13.3,310,21.0,0,0.00,0.00,0.00,55.0,54.1